Content
SEND FEEDBACK

Daily
Averages
Monthly
Summary
United States of America

HAZLETON, PENNSYLVANIA


Home > North America > United States > Pennsylvania
Elevation: 1785 feet     Latitude: 41 01N     Longitude: 075 54W

WEATHER
 
SELECT A DAY
Number of Records: 218,417;   Date Range: 1/1/95 - 10/18/14
 
SHARE

PRINT THIS DATA

[ ← Previous Day ]
WEATHER ALMANAC - JUNE 17, 2014
[ Next Day → ]
[ °C ]   °F
Weather ElementAverageHighLow
Temperature78.7 °F88 °F (2:54 pm)64.9 °F (5:54 am)
Dewpoint65 °F68 °F (11:54 pm)60.1 °F (2:54 pm)
Humidity64.5 %93 % (5:54 am)39 % (2:54 pm)
Barometer29.99 in30.10 in (7:25 am)29.85 in (11:54 pm)
Wind Speed6.4 mph13.8 mph (3:54 pm)
Wind Gust27.6 mph (11:54 pm)
Weather ElementAverage
Visibility9.1 mi
Wind DirectionSSE (146.7 °)

Weather ElementTotal
Precipitation---
Cooling Degree Days11.5 (Base 65)
Growing Degree Days26.5 (Base 50)
Averaged from 24 records on June 17, 2014
WEATHER CONDITIONS BREAKOUT
WIND DIRECTION BREAKOUT
WEATHER BY HOUR - JUNE 17, 2014
[ °C ]   °F
Local TimeTemperatureDewpointHumidityBarometerVisibilityWind DirectionWind SpeedGust SpeedPrecipitationEventsConditions
1:54 AM71.1 °F64.0 °F78 %30.04 in10.0 miSouth (180°)4.6 mphMostly Cloudy
2:54 AM71.1 °F64.9 °F81 %30.03 in10.0 miSouth (190°)3.5 mphMostly Cloudy
3:54 AM72.0 °F64.0 °F76 %30.02 in10.0 miCalmOvercast
4:54 AM66.9 °F64.0 °F90 %30.03 in8.0 miCalmClear
5:54 AM64.9 °F63.0 °F93 %30.05 in4.0 miCalmClear
6:54 AM69.1 °F64.9 °F87 %30.06 in6.0 miCalmClear
7:25 AM69.8 °F64.4 °F83 %30.10 in6.0 miCalmHaze
7:54 AM72.0 °F66.0 °F81 %30.08 in7.0 miSSW (210°)6.9 mphScattered Clouds
8:54 AM75.0 °F66.0 °F73 %30.09 in9.0 miWest (260°)5.8 mphClear
9:54 AM78.1 °F66.0 °F66 %30.08 in10.0 miCalmClear
10:54 AM81.0 °F66.9 °F62 %30.06 in10.0 miVariable3.5 mphClear
11:54 AM82.9 °F64.9 °F54 %30.05 in10.0 miVariable6.9 mphClear
12:54 PM86.0 °F64.0 °F48 %30.03 in10.0 miSW (230°)8.1 mphPartly Cloudy
1:54 PM86.0 °F63.0 °F46 %30.02 in10.0 miSW (220°)8.1 mph16.1 mphScattered Clouds
2:54 PM88.0 °F60.1 °F39 %29.99 in10.0 miWSW (240°)11.5 mph17.3 mphClear
3:54 PM88.0 °F62.1 °F42 %29.96 in10.0 miWSW (250°)13.8 mph17.3 mphClear
4:54 PM87.1 °F64.0 °F46 %29.96 in10.0 miSW (230°)9.2 mph21.9 mphScattered Clouds
5:54 PM84.9 °F66.0 °F53 %29.94 in10.0 miSW (220°)10.4 mph17.3 mphClear
6:54 PM84.9 °F66.0 °F53 %29.91 in10.0 miSSW (210°)10.4 mph16.1 mphClear
7:54 PM82.9 °F66.9 °F58 %29.90 in10.0 miSSW (200°)10.4 mphClear
8:54 PM82.0 °F66.0 °F58 %29.88 in10.0 miSSW (210°)6.9 mphClear
9:54 PM82.0 °F66.9 °F60 %29.88 in10.0 miSW (230°)8.1 mphClear
10:54 PM82.0 °F66.9 °F60 %29.86 in9.0 miSW (220°)12.7 mph26.5 mphClear
11:54 PM82.0 °F68.0 °F62 %29.85 in9.0 miSW (220°)13.8 mph27.6 mphClear
Hourly data recorded from KAVP, located miles away from Hazleton, Pennsylvania







STORIES FROM OUR PARTNERS